GW1014 Weather Reports


time (UTC)temp
F
wind
direction
speed
knots
gust
knots
rain 1hr
in
rain 24hr
in
rain mn
in
humidity
%
barometer
mb
20260503022038 46 13 0.0 0.0 0.00 0.00 0.00 82 1015.3
20260503021536 46 13 0.0 0.0 0.00 0.00 0.00 83 1015.3
20260503021032 47 13 0.0 0.0 0.00 0.00 0.00 82 1015.3
20260503020530 47 13 0.0 0.0 0.00 0.00 0.00 81 1015.3
20260503020027 47 13 0.0 0.0 0.00 0.00 0.00 81 1015.1
20260503015523 47 13 0.0 0.0 0.00 0.00 0.00 81 1015.1
20260503015020 47 13 0.0 0.0 0.00 0.00 0.00 84 1014.8
20260503014516 47 13 0.0 0.0 0.00 0.00 0.00 87 1014.8
20260503014015 47 13 0.0 0.0 0.00 0.00 0.00 89 1014.7
20260503013512 47 13 0.0 0.0 0.00 0.00 0.00 89 1014.6
20260503013009 47 13 0.0 0.0 0.00 0.00 0.00 89 1014.4
20260503012507 48 13 0.0 0.0 0.00 0.00 0.00 88 1014.4
20260503012003 48 13 0.0 0.0 0.00 0.00 0.00 86 1014.2
20260503011459 48 13 0.0 0.0 0.00 0.00 0.00 86 1014.0
20260503010956 49 13 0.0 0.0 0.00 0.00 0.00 85 1014.0
20260503010453 49 13 0.0 0.0 0.00 0.00 0.00 84 1013.8
20260503005950 50 13 0.0 0.0 0.00 0.00 0.00 83 1013.9
20260503005447 50 14 0.0 0.0 0.00 0.00 0.00 82 1013.8
20260503004944 51 10 0.0 0.0 0.00 0.00 0.00 80 1013.8
20260503004441 51 11 0.0 0.0 0.00 0.00 0.00 81 1013.6
20260503003939 52 11 0.0 0.0 0.00 0.00 0.00 79 1013.6
20260503003435 52 329 0.0 0.0 0.00 0.00 0.00 80 1013.5
20260503002932 52 329 0.0 0.0 0.00 0.00 0.00 81 1013.5
20260503002429 52 329 0.0 0.0 0.00 0.00 0.00 81 1013.3
20260503001926 53 329 0.0 0.0 0.00 0.00 0.00 78 1013.3
20260503001422 53 329 0.0 0.0 0.00 0.00 0.00 78 1013.2
20260503000920 53 329 0.0 0.0 0.00 0.00 0.00 77 1013.1
20260503000417 53 329 0.0 0.0 0.00 0.00 0.00 77 1013.2
20260502235914 53 329 0.0 0.0 0.00 0.00 0.00 76 1013.2
20260502235411 53 329 0.0 0.0 0.00 0.00 0.00 75 1013.1
20260502234908 54 329 0.0 0.0 0.00 0.00 0.00 76 1013.1
20260502234405 54 329 0.0 0.0 0.00 0.00 0.00 73 1012.7
20260502233902 54 329 0.0 0.0 0.00 0.00 0.00 73 1012.7
20260502233357 54 0 0.0 0.0 0.00 0.00 0.00 72 1012.7
20260502232855 55 0 0.0 0.0 0.00 0.00 0.00 73 1012.6
20260502232351 55 0 0.0 0.0 0.00 0.00 0.00 71 1012.5
20260502231848 55 0 0.0 0.0 0.00 0.00 0.00 70 1012.4
20260502231346 55 0 0.0 0.0 0.00 0.00 0.00 69 1012.4
20260502230843 55 0 0.0 0.0 0.00 0.00 0.00 66 1012.5
20260502230341 56 0 0.0 0.0 0.00 0.00 0.00 65 1012.4
20260502225838 56 0 0.0 0.0 0.00 0.00 0.00 62 1012.5
20260502225334 56 0 0.0 0.0 0.00 0.00 0.00 61 1012.6
20260502224831 56 0 0.0 0.0 0.00 0.00 0.00 63 1012.2
20260502224327 57 0 0.0 0.0 0.00 0.00 0.00 60 1012.2
20260502223825 57 0 0.0 0.0 0.00 0.00 0.00 55 1012.3
20260502223323 58 0 0.0 0.0 0.00 0.00 0.00 55 1012.1
20260502222820 58 0 0.0 0.0 0.00 0.00 0.00 50 1012.1
20260502222318 58 0 0.0 0.0 0.00 0.00 0.00 51 1011.9
20260502221813 59 0 0.0 0.0 0.00 0.00 0.00 51 1011.9
20260502221310 59 356 0.0 0.0 0.00 0.00 0.00 48 1011.9
20260502220807 58 25 0.0 0.0 0.00 0.00 0.00 46 1011.9
20260502220302 58 350 0.0 0.0 0.00 0.00 0.00 48 1011.5
20260502215759 58 350 0.0 0.0 0.00 0.00 0.00 52 1011.7
20260502215257 58 288 0.0 0.0 0.00 0.00 0.00 46 1011.6
20260502214754 58 66 0.0 0.0 0.00 0.00 0.00 48 1011.6
20260502214250 59 101 0.0 0.0 0.00 0.00 0.00 48 1011.5
20260502213748 59 22 0.0 1.7 0.00 0.00 0.00 46 1011.6
20260502213245 59 351 0.0 1.7 0.00 0.00 0.00 48 1011.7
20260502212744 59 24 0.0 0.0 0.00 0.00 0.00 47 1011.7
20260502212242 59 235 0.0 0.9 0.00 0.00 0.00 45 1011.5
20260502211737 59 346 0.0 0.9 0.00 0.00 0.00 47 1011.7
20260502211234 59 350 0.0 0.0 0.00 0.00 0.00 49 1011.7
20260502210731 60 272 0.0 0.0 0.00 0.00 0.00 49 1011.7
20260502210229 60 325 0.0 2.6 0.00 0.00 0.00 45 1011.7
20260502205726 59 255 0.9 1.7 0.00 0.00 0.00 50 1011.7
20260502205222 60 118 0.0 0.0 0.00 0.00 0.00 49 1011.5
20260502204719 60 263 0.0 1.7 0.00 0.00 0.00 49 1011.7
20260502204217 60 263 0.0 0.0 0.00 0.00 0.00 50 1011.8
20260502203714 58 57 0.0 0.9 0.00 0.00 0.00 49 1011.9
20260502203212 58 299 0.0 0.0 0.00 0.00 0.00 48 1011.9
20260502202706 58 335 0.0 0.0 0.00 0.00 0.00 51 1011.9
20260502202205 58 344 0.0 0.0 0.00 0.00 0.00 47 1011.9
20260502201702 57 354 0.0 0.0 0.00 0.00 0.00 48 1012.1
20260502201158 58 295 0.0 0.0 0.00 0.00 0.00 50 1012.0
20260502200654 58 322 0.0 0.0 0.00 0.00 0.00 49 1012.1
20260502200150 58 345 0.0 0.0 0.00 0.00 0.00 50 1012.3
20260502195649 57 5 0.0 0.0 0.00 0.00 0.00 50
20260502195145 57 10 0.0 0.0 0.00 0.00 0.00 51
20260502194641 57 353 0.0 0.0 0.00 0.00 0.00 48
20260502194138 57 46 0.0 0.0 0.00 0.00 0.00 48 1012.7
20260502193634 57 24 0.0 0.0 0.00 0.00 0.00 51 1012.7
20260502193132 58 347 0.0 0.0 0.00 0.00 0.00 49
20260502192627 57 53 0.0 0.0 0.00 0.00 0.00 46 1012.8
20260502192125 56 9 0.0 0.0 0.00 0.00 0.00 46 1012.8
20260502191621 56 350 0.0 0.0 0.00 0.00 0.00 50 1012.9
20260502191119 56 11 0.0 0.0 0.00 0.00 0.00 49 1012.7
20260502190616 56 353 0.0 0.9 0.00 0.00 0.00 50 1012.9
20260502190114 57 350 0.0 0.0 0.00 0.00 0.00 51 1012.9
20260502185608 56 4 0.0 0.0 0.00 0.00 0.00 48 1013.2
20260502185105 55 67 0.0 0.9 0.00 0.00 0.00 50 1013.3
20260502184601 55 65 0.0 2.6 0.00 0.00 0.00 52 1013.3
20260502184057 55 327 0.0 0.0 0.00 0.00 0.00 52 1013.2
20260502183554 54 334 0.0 0.9 0.00 0.00 0.00 51 1013.2
20260502183050 54 80 1.7 2.6 0.00 0.00 0.00 51 1039.5
20260502182545 54 88 0.9 1.7 0.00 0.00 0.00 50 1013.3
20260502182041 54 336 0.0 0.0 0.00 0.00 0.00 52 1013.2
20260502181539 54 62 0.0 1.7 0.00 0.00 0.00 52 1013.3
20260502181038 54 43 0.0 0.0 0.00 0.00 0.00 52 1013.2
20260502180535 54 346 0.0 3.5 0.00 0.00 0.00 54 1013.2
20260502170459 54 323 0.0 3.5 0.00 0.00 0.00 55 1013.9
20260502163943 53 0 0.0 0.0 0.00 0.00 0.00 57 1014.2
20260502163439 53 10 0.0 0.9 0.00 0.00 0.00 56 1014.5
20260502162937 53 36 0.0 0.0 0.00 0.00 0.00 57 1014.6
20260502162434 53 25 0.0 0.0 0.00 0.00 0.00 55 1014.7
20260502161931 53 25 0.0 0.0 0.00 0.00 0.00 55 1014.8
20260502161426 53 353 0.0 0.0 0.00 0.00 0.00 58 1014.7
20260502160925 53 18 0.0 0.9 0.00 0.00 0.00 55 1014.8
20260502160422 53 7 0.0 0.0 0.00 0.00 0.00 61 1014.9
20260502151901 52 47 0.0 1.7 0.00 0.00 0.00 57 1014.9
20260502151357 52 49 0.9 0.9 0.00 0.00 0.00 58 1014.9
20260502150855 52 247 1.7 1.7 0.00 0.00 0.00 60 1015.0
20260502150351 52 341 0.0 0.0 0.00 0.00 0.00 60 1014.8
20260502130739 52 23 0.0 0.0 0.00 0.00 0.00 71 1014.5
20260502130237 52 24 0.0 0.0 0.00 0.00 0.00 73 1014.4
20260502123723 53 24 0.0 0.0 0.00 0.00 0.00 74 1013.7
20260502123219 53 355 0.0 0.0 0.00 0.00 0.00 74
20260502122716 52 32 0.0 0.0 0.00 0.00 0.00 74 1014.0
20260502122212 52 26 0.0 0.0 0.00 0.00 0.00 74 1014.0
20260502121711 52 38 0.0 0.0 0.00 0.00 0.00 74
20260502121208 52 356 0.0 0.0 0.00 0.00 0.00 75 1013.8
20260502120704 52 39 0.0 1.7 0.00 0.00 0.00 74 1013.8
20260502120201 52 17 0.0 2.6 0.00 0.00 0.00 76
20260502115659 52 357 0.0 0.0 0.00 0.00 0.00 75
20260502115155 52 29 0.0 0.0 0.00 0.00 0.00 77
20260502114651 52 33 0.0 0.0 0.00 0.00 0.00 78 1013.5
20260502114149 52 14 0.0 0.0 0.00 0.00 0.00 78 1013.5
20260502113646 52 38 0.0 0.0 0.00 0.00 0.00 78
20260502113144 52 8 0.0 0.0 0.00 0.00 0.00 79 1013.5
20260502112642 52 9 0.0 0.0 0.00 0.00 0.00 78 1013.5
20260502112139 52 28 0.0 0.0 0.00 0.00 0.00 77 1013.6
20260502111636 52 346 0.0 0.0 0.00 0.00 0.00 78 1013.5
20260502111134 52 359 0.0 0.0 0.00 0.00 0.00 79 1013.6
20260502110631 52 4 0.0 0.0 0.00 0.00 0.00 79 1013.6
20260502110128 52 355 0.0 0.0 0.00 0.00 0.00 79 1013.5
20260502105626 52 357 0.0 0.0 0.00 0.00 0.00 81 1013.2
20260502105123 52 14 0.0 0.0 0.00 0.00 0.00 82 1013.5
20260502104620 51 358 0.0 0.0 0.00 0.00 0.00 83 1013.4
20260502104117 51 358 0.0 0.0 0.00 0.00 0.00 84 1013.5
20260502103615 51 358 0.0 0.0 0.00 0.00 0.00 83 1013.4
20260502103113 51 354 0.0 0.0 0.00 0.00 0.00 85 1013.7
20260502102609 51 354 0.0 0.0 0.00 0.00 0.00 85 1013.5
20260502102106 52 354 0.0 0.0 0.00 0.00 0.00 85 1013.5
20260502101604 51 354 0.0 0.0 0.00 0.00 0.00 84 1013.9
20260502101102 51 354 0.0 0.0 0.00 0.00 0.00 84 1013.7
20260502100600 51 354 0.0 0.0 0.00 0.00 0.00 87 1013.5
20260502091032 52 344 0.0 0.0 0.00 0.00 0.00 86 1013.4
20260502090529 52 359 0.0 0.0 0.00 0.00 0.00 87 1013.4
20260502071424 51 348 0.0 0.0 0.00 0.00 0.00 94
20260502070922 52 348 0.0 0.0 0.00 0.00 0.00 93
20260502070420 52 348 0.0 0.0 0.00 0.00 0.00 93
20260502065918 52 348 0.0 0.0 0.00 0.00 0.00 93 1012.4
20260502065416 52 348 0.0 0.0 0.00 0.00 0.00 93 1012.4
20260502064914 52 348 0.0 0.0 0.00 0.00 0.00 93 1012.8
20260502064411 52 348 0.0 0.0 0.00 0.00 0.00 92 1012.6
20260502063908 52 348 0.0 0.0 0.00 0.00 0.00 92
20260502063406 52 348 0.0 0.0 0.00 0.00 0.00 92
20260502062903 52 347 0.0 0.0 0.00 0.00 0.00 92
20260502062400 52 348 0.0 0.0 0.00 0.00 0.00 92
20260502061859 52 348 0.0 0.0 0.00 0.00 0.00 91
20260502061357 52 348 0.0 0.0 0.00 0.00 0.00 91
20260502060852 53 348 0.0 0.0 0.00 0.00 0.00 91
20260502060347 53 347 0.0 0.0 0.00 0.00 0.00 90
20260502055845 53 347 0.0 0.0 0.00 0.00 0.00 89
20260502055343 53 347 0.0 0.0 0.00 0.00 0.00 89 1013.5
20260502054842 53 357 0.0 0.0 0.00 0.00 0.00 89 1013.5
20260502054339 53 337 0.0 0.0 0.00 0.00 0.00 89
20260502053837 53 31 0.0 0.0 0.00 0.00 0.00 89
20260502053334 53 48 0.0 0.0 0.00 0.00 0.00 90
20260502052831 52 161 0.0 0.0 0.00 0.00 0.00 91 1012.6
20260502052329 52 162 0.0 0.0 0.00 0.00 0.00 91 1012.6
20260502051827 52 162 0.0 0.0 0.00 0.00 0.00 91 1012.7
20260502051326 52 162 0.0 0.0 0.00 0.00 0.00 91
20260502050821 52 162 0.0 0.0 0.00 0.00 0.00 91
20260502050318 52 162 0.0 0.0 0.00 0.00 0.00 91
20260502045815 52 162 0.0 0.0 0.00 0.00 0.00 91 1012.9
20260502045312 52 162 0.0 0.0 0.00 0.00 0.00 91 1012.9
20260502044809 52 162 0.0 0.0 0.00 0.00 0.00 90 1013.0
20260502044305 52 162 0.0 0.0 0.00 0.00 0.00 90 1012.9
20260502043802 52 162 0.0 0.0 0.00 0.00 0.00 90 1012.8
20260502043300 52 162 0.0 0.0 0.00 0.00 0.00 90 1012.9
20260502042759 52 162 0.0 0.0 0.00 0.00 0.00 90 1012.8
20260502042257 52 162 0.0 0.0 0.00 0.00 0.00 90 1013.0
20260502041754 52 162 0.0 0.0 0.00 0.00 0.00 91 1012.9
20260502041251 52 162 0.0 0.0 0.00 0.00 0.00 91
20260502040748 52 162 0.0 0.0 0.00 0.00 0.00 90
20260502040245 52 162 0.0 0.0 0.00 0.00 0.00 90 1013.0
20260502035741 52 162 0.0 0.0 0.00 0.00 0.00 90 1013.0
20260502035238 52 162 0.0 0.0 0.00 0.00 0.00 90 1013.1
20260502034736 52 162 0.0 0.0 0.00 0.00 0.00 90 1013.1
20260502034233 52 162 0.0 0.0 0.00 0.00 0.00 90 1013.2
20260502033731 52 162 0.0 0.0 0.00 0.00 0.00 90 1013.3
20260502033229 53 162 0.0 0.0 0.00 0.00 0.00 89 1013.3
20260502032725 53 162 0.0 0.0 0.00 0.00 0.00 89 1013.2
20260502032221 53 162 0.0 0.0 0.00 0.00 0.00 89 1013.1
20260502031720 53 162 0.0 0.0 0.00 0.00 0.00 89 1013.1
20260502031217 53 162 0.0 0.0 0.00 0.00 0.00 88
20260502030716 53 162 0.0 0.0 0.00 0.00 0.00 88 1013.1
20260502030214 54 162 0.0 0.0 0.00 0.00 0.00 88 1013.1
20260502025710 54 162 0.0 0.0 0.00 0.00 0.00 87
20260502025208 54 162 0.0 0.0 0.00 0.00 0.00 87 1013.3
20260502024706 54 162 0.0 0.0 0.00 0.00 0.00 86 1013.3
20260502024204 55 162 0.0 0.0 0.00 0.00 0.00 85 1013.2
20260502023701 55 162 0.0 0.0 0.00 0.00 0.00 85 1013.1
20260502023158 55 162 0.0 0.0 0.00 0.00 0.00 84 1013.3
20260502022655 55 162 0.0 0.0 0.00 0.00 0.00 85 1013.0